Flag for Germany Weather past 2 weeks in Coesfeld, North Rhine-Westphalia, Germany

Now
82 °F

Warm.


Feels Like: 85 °F
Forecast: 65 / 83 °F
Wind: 6 mph from East

Location: Rheine-Bentlage

Current Time: Jul 4, 2015 at 10:47:14 AM

Latest Report: Jul 4, 2015 at 9:20 AM


Visibility: N/A

Pressure: 30.07 "Hg

Humidity: 62%

Dew point: 68 °F

Location of CoesfeldLocation

Historic Weather in Coesfeld — Graph

°F

Coesfeld temperature yesterday

Maximum temperature yesterday: 86 °F (at 3:20 PM)
Minimum temperature yesterday: 66 °F (at 6:20 AM)
Average temperature yesterday: 77 °F

Past Weeks' High & Low Weather Summary

 TemperatureHumidityPressure
High97 °F (Jul 2, 4:20 PM)100% (Jun 22, 7:20 AM)30.27 "Hg (Jun 22, 7:20 AM)
Low46 °F (Jun 23, 4:20 AM)29% (Jul 1, 3:20 PM)29.68 "Hg (Jun 22, 7:20 PM)
Average65 °F69%30.06 "Hg
* Reported Jun 19 9:20 AM — Jul 4 9:20 AM, Coesfeld, Weather by CustomWeather, © 2015

Note: Actual official high and low records may vary slightly from our data, if they occured in-between our weather recording intervals... More about our weather records

Advertising

Coesfeld weather history for previous 24 hours

 ConditionsComfort  
Time TempWeatherWind HumidityBarometerVisibility
9:20 AM
Sat, Jul 4
82 °FWarm.6 mph62%30.07 "HgN/A
8:20 AM75 °FMild.3 mph78%30.07 "HgN/A
7:20 AM72 °FMild.2 mph83%30.07 "HgN/A
6:20 AM68 °FMild.2 mph94%30.09 "HgN/A
5:20 AM68 °FMild.3 mph94%30.09 "HgN/A
4:20 AM68 °FMild.6 mph94%30.12 "HgN/A
3:20 AM70 °FMild.6 mph88%30.12 "HgN/A
2:20 AM70 °FMild.5 mph88%30.15 "HgN/A
1:20 AM72 °FMild.6 mph83%30.18 "HgN/A
12:20 AM73 °FMild.3 mph83%30.18 "HgN/A
11:20 PM
Fri, Jul 3
75 °FMild.5 mph78%30.21 "HgN/A
10:20 PM77 °FWarm.6 mph74%30.21 "HgN/A
9:20 PM81 °FWarm.7 mph66%30.21 "HgN/A
8:20 PM84 °FWarm.6 mph55%30.21 "HgN/A
7:20 PM84 °FWarm.8 mph55%30.21 "HgN/A
6:20 PM86 °FWarm.6 mph52%30.21 "HgN/A
5:20 PM86 °FWarm.8 mph52%30.21 "HgN/A
4:20 PM86 °FWarm.5 mph52%30.21 "HgN/A
3:20 PM86 °FWarm.5 mph52%30.24 "HgN/A
2:20 PM84 °FWarm.5 mph55%30.24 "HgN/A
1:20 PM82 °FWarm.2 mph58%30.24 "HgN/A
12:20 PM81 °FPassing clouds.3 mph62%30.27 "HgN/A
11:20 AM77 °FScattered clouds.1 mph65%30.27 "HgN/A
10:20 AM77 °FScattered clouds.2 mph69%30.27 "HgN/A
Weather by CustomWeather, © 2015

See weather overviewHow to use our weather pages